EXPRESS-AM5

Last updated on Tue Jul 01 2025 00:02:46 GMT+0000 (Coordinated Universal Time)

1 39487U 13077A 25181.51679674 -.00000281 00000+0 00000+0 0 9991 2 39487 0.0178 11.6365 0000257 219.4989 13.7738 1.00270178 42839
UTC large
Height (km)
Speed (km/s)
/
Latitude / Longitude
Inclination (degrees)
Orbital Period (minutes)
Azimuth
Elevation
Range (km)
Doppler Factor

Next 0 passes for location: London (51.5072 / 0.1276)

Sorry there are no passes over London.